This is the latest recevied weather packets stored in our database for station/object LA1HSA-13. If no packets are shown the sender has not sent any weather packets the latest 10 day(s).
| Time | Temp. | Humidity | Pressure | Rain* | Wind** | Luminosity | Snow |
|---|---|---|---|---|---|---|---|
| 1777598404 | 5.56° C | 99% | 1024.5 hPa | 0 mm | - | - | - |
| 1777597803 | 5.56° C | 99% | 1024.6 hPa | 0 mm | - | - | - |
| 1777597203 | 5.56° C | 99% | 1024.6 hPa | 0 mm | - | - | - |
| 1777596603 | 6.11° C | 99% | 1024.5 hPa | 0 mm | - | - | - |
| 1777596003 | 6.11° C | 99% | 1024.5 hPa | 0 mm | - | - | - |
| 1777595403 | 6.11° C | 99% | 1024.8 hPa | 0 mm | - | - | - |
| 1777594803 | 6.11° C | 99% | 1024.7 hPa | 0 mm | - | - | - |
| 1777594203 | 5.56° C | 99% | 1024.8 hPa | 0 mm | - | - | - |
| 1777593603 | 5.56° C | 98% | 1024.7 hPa | 0 mm | - | - | - |
| 1777593003 | 5.56° C | 97% | 1024.8 hPa | 0 mm | - | - | - |
| 1777592403 | 6.11° C | 96% | 1024.5 hPa | 0 mm | - | - | - |
| 1777591803 | 6.67° C | 95% | 1024.9 hPa | 0 mm | - | - | - |
| 1777591204 | 6.67° C | 94% | 1025 hPa | 0 mm | - | - | - |
| 1777590603 | 6.67° C | 93% | 1024.9 hPa | 0 mm | - | - | - |
| 1777590004 | 7.22° C | 91% | 1024.9 hPa | 0 mm | - | - | - |
| 1777589403 | 7.22° C | 91% | 1024.8 hPa | 0 mm | - | - | - |
| 1777588803 | 7.78° C | 90% | 1025 hPa | 0 mm | - | - | - |
| 1777588204 | 7.78° C | 89% | 1025.1 hPa | 0 mm | - | - | - |
| 1777587603 | 7.78° C | 88% | 1024.9 hPa | 0 mm | - | - | - |
| 1777587003 | 8.33° C | 87% | 1024.9 hPa | 0 mm | - | - | - |
| 1777586422 | 8.33° C | 85% | 1025 hPa | 0 mm | - | - | - |
| 1777585803 | 8.33° C | 84% | 1025 hPa | 0 mm | - | - | - |
| 1777585203 | 8.89° C | 82% | 1024.9 hPa | 0 mm | - | - | - |
| 1777584603 | 9.44° C | 80% | 1024.9 hPa | 0 mm | - | - | - |
| 1777584003 | 9.44° C | 78% | 1024.9 hPa | 0 mm | - | - | - |
* Rain latest hour (hover to see other rain measurements)
** Current wind speed in m/s (hover to see current wind gust speed)